PulseSat

PulseSat

MOLNIYA 3-41

Last updated on Dec. 6, 2018, 12:08 a.m. UTC

1 21706U 91065A   18338.45240522 -.00000389  00000-0  11577-1 0  9997
2 21706  64.4091 305.8516 6972814 270.0163 338.4399  2.04361773200550
UTC
Height (km)
Latitude
Longitude
Inclination
Orbital Period

Next 30 passes for location: Hong Kong

Rise time Rise Azimuth (degrees) Set time Set Azimuth (degrees) Duration Max altitude (degrees)

No matching passes for this satellites

PulseSat

PulseSat is the new satellites software and hardware trackering solution by Pulsely.
Satellite Two Line Element Set source: US Air Force Space Command

Download PulseSat for iOS
© 2017 Pulsely Limited